Location: Buisson
(44.2787°N, 4.9969°E)
Time: 01:53:15
(UTC+00:00)

Meteor 2-20 - Pass Details

Date: 18 April 2021
Orbit: 939 x 958 km, 82.5° (Epoch: 08 May)

Event Time Altitude Azimuth Distance (km) Brightness Sun altitude
Rises 03:44:58 0° 190° (S) 3,609 7.1 -11.8°
Reaches altitude 10° 03:47:27 10° 192° (SSW) 2,670 6.4 -11.4°
Maximum altitude 03:53:34 79° 279° (W) 977 4.4 -10.4°
Drops below altitude 10° 03:59:46 10° 6° (N) 2,698 7.3 -9.5°
Sets 04:02:17 0° 8° (N) 3,649 8.0 -9.0°
